Weather reports worldwide

Advertisment
Exeter Airport No. 2, United Kingdom (3844): temperature & dewpoint: 10.08.2017 18:00:00 - 16.08.2017 18:00:00 (BST)Exeter Airport No. 2, United Kingdom (3844): wind speed: 10.08.2017 18:00:00 - 16.08.2017 18:00:00 (BST)Exeter Airport No. 2, United Kingdom (3844): wind direction: 10.08.2017 18:00:00 - 16.08.2017 18:00:00 (BST)Exeter Airport No. 2, United Kingdom (3844): reduced air pressure: 10.08.2017 18:00:00 - 16.08.2017 18:00:00 (BST)Exeter Airport No. 2, United Kingdom (3844): visibility: 10.08.2017 18:00:00 - 16.08.2017 18:00:00 (BST)Exeter Airport No. 2, United Kingdom (3844): sunshine duration: 10.08.2017 18:00:00 - 16.08.2017 18:00:00 (BST)Exeter Airport No. 2, United Kingdom (3844): precipitation: 10.08.2017 18:00:00 - 16.08.2017 18:00:00 (BST)
Date & Time tt [°C] td [°C] ff [km/h] ff [kn] dd ppp [hPa] vv [km] sd [min] rr [mm]
16.08.2017 18:00:00 18,0 13,1 21 11 S 1016,2 35 0 0,0
16.08.2017 17:00:00 18,7 13,3 16 9 S 1016,8 35 6 0,0
16.08.2017 16:00:00 20,1 15,3 22 12 S 1016,9 40 48 0,0
16.08.2017 15:00:00 20,0 14,4 22 12 S 1017,3 40 18 0,0
16.08.2017 14:00:00 18,7 14,3 24 13 S 1018,0 35 0 0,0
16.08.2017 13:00:00 18,7 14,3 24 13 S 1018,6 35 12 0,0
16.08.2017 12:00:00 17,8 13,6 28 15 S 1018,9 35 18 0,0
16.08.2017 11:00:00 18,1 14,5 22 12 S 1018,7 35 24 0,0
16.08.2017 10:00:00 16,7 13,7 18 10 S 1019,4 35 0 0,0
16.08.2017 09:00:00 16,3 15,1 13 7 S 1019,6 30 12 0,0
16.08.2017 08:00:00 12,0 12,0 2 1 S 1019,4 18 0 0,0
16.08.2017 07:00:00 10,4 10,4 0 0 N 1019,4 18 0 0,0
16.08.2017 06:00:00 9,8 9,8 0 0 N 1019,3 16 0 0,0
16.08.2017 05:00:00 9,7 9,7 2 1 NE 1019,3 17 0 0,0
16.08.2017 04:00:00 9,0 9,0 2 1 N 1019,8 14 0 0,0
16.08.2017 03:00:00 8,4 8,3 2 1 ENE 1019,9 9 0 0,0
16.08.2017 02:00:00 8,7 8,6 2 1 ENE 1020,0 13 0 0,0
16.08.2017 01:00:00 9,5 9,1 5 3 ENE 1020,1 21 - 0,0
16.08.2017 00:00:00 10,1 9,3 2 1 SSE 1020,3 15 0 0,0
15.08.2017 23:00:00 10,7 7,9 2 1 NW 1019,9 30 0 0,0
15.08.2017 22:00:00 13,6 11,0 5 3 W 1019,8 40 0 0,0
15.08.2017 21:00:00 13,7 10,5 0 0 N 1019,2 30 24 0,0
15.08.2017 20:00:00 17,1 11,5 11 6 WNW 1018,6 50 60 0,0
15.08.2017 19:00:00 18,8 11,4 16 9 WNW 1017,8 50 54 0,0
15.08.2017 18:00:00 20,1 12,2 18 10 WNW 1017,3 4,1 36 0,0
15.08.2017 17:00:00 19,7 10,9 15 8 WNW 1017,3 9 30 0,0
15.08.2017 16:00:00 20,3 10,3 15 8 WNW 1017,0 15 42 0,0
15.08.2017 15:00:00 20,8 11,3 16 9 WNW 1016,9 8 48 0,0
15.08.2017 14:00:00 21,1 11,7 15 8 WNW 1016,7 30 48 0,0
15.08.2017 13:00:00 20,1 11,3 15 8 W 1016,5 50 60 0,0
15.08.2017 12:00:00 18,1 11,7 15 8 WNW 1016,1 50 42 0,0
15.08.2017 11:00:00 18,0 13,1 11 6 W 1015,9 50 36 0,0
15.08.2017 10:00:00 16,6 13,2 11 6 W 1015,5 50 42 0,0
15.08.2017 09:00:00 16,0 13,7 9 5 W 1015,2 50 24 0,0
15.08.2017 08:00:00 14,5 13,8 5 3 W 1014,8 40 30 0,0
15.08.2017 07:00:00 13,4 13,3 9 5 WSW 1014,2 25 0 0,0
15.08.2017 06:00:00 12,7 12,6 4 2 W 1013,7 1,1 0 0,0
15.08.2017 05:00:00 13,1 13,0 2 1 WSW 1013,3 0,1 0 0,0
15.08.2017 04:00:00 14,2 14,1 2 1 W 1013,3 4,3 0 0,0
15.08.2017 03:00:00 13,6 13,3 4 2 W 1013,4 0,1 0 0,0
15.08.2017 02:00:00 15,0 14,9 5 3 SSW 1013,6 9 0 0,0
15.08.2017 01:00:00 13,8 13,5 4 2 SSW 1013,8 4,5 - 0,0
15.08.2017 00:00:00 14,7 14,4 5 3 E 1013,9 12 0 0,0
14.08.2017 23:00:00 14,9 14,5 5 3 SSE 1014,1 15 0 2,8
14.08.2017 22:00:00 15,2 14,4 8 4 SSW 1014,5 1,7 0 1,0
14.08.2017 21:00:00 15,6 14,6 5 3 S 1014,3 7 0 0,4
14.08.2017 20:00:00 16,3 14,4 5 3 S 1014,1 30 0 0,0
14.08.2017 19:00:00 17,0 15,0 8 4 SE 1013,9 35 0 0,0
14.08.2017 18:00:00 16,6 15,0 9 5 S 1014,6 2,6 0 0,4
14.08.2017 17:00:00 16,8 14,9 8 4 S 1014,3 18 0 0,4
14.08.2017 16:00:00 17,2 15,3 13 7 SSE 1015,0 14 0 0,2
14.08.2017 15:00:00 17,8 14,8 16 9 S 1015,6 20 0 0,0
14.08.2017 14:00:00 19,0 14,2 21 11 S 1015,7 35 30 0,0
14.08.2017 13:00:00 18,9 13,2 21 11 SSE 1015,8 40 60 0,0
14.08.2017 12:00:00 19,0 13,8 16 9 SSE 1016,2 50 60 0,0
14.08.2017 11:00:00 17,8 13,8 15 8 SSE 1016,5 40 36 0,0
14.08.2017 10:00:00 15,8 14,1 11 6 SSE 1017,0 29 0 0,2
14.08.2017 09:00:00 15,2 14,2 11 6 SSE 1017,3 16 0 0,2
14.08.2017 08:00:00 13,3 13,2 4 2 NE 1017,7 9 0 0,2
14.08.2017 07:00:00 12,2 12,1 2 1 NE 1017,8 11 0 0,0
14.08.2017 06:00:00 11,6 11,5 2 1 N 1017,6 20 0 0,0
14.08.2017 05:00:00 11,3 11,3 5 3 ENE 1017,7 19 0 0,0
14.08.2017 04:00:00 10,0 9,9 2 1 NW 1018,4 15 0 0,0
14.08.2017 03:00:00 9,8 9,6 4 2 WNW 1018,8 12 0 0,0
14.08.2017 02:00:00 9,1 8,7 2 1 E 1019,2 9 0 0,0
14.08.2017 01:00:00 9,7 9,1 2 1 N 1019,7 23 - 0,0
14.08.2017 00:00:00 11,4 10,1 4 2 E 1019,8 30 0 0,0
13.08.2017 23:00:00 11,5 9,7 2 1 ESE 1020,3 27 0 0,0
13.08.2017 22:00:00 11,8 9,5 4 2 SSE 1020,6 28 0 0,0
13.08.2017 21:00:00 14,6 11,4 5 3 S 1020,3 30 0 0,0
13.08.2017 20:00:00 16,1 12,5 8 4 SE 1020,3 30 6 0,0
13.08.2017 19:00:00 17,3 10,8 11 6 S 1020,4 40 30 0,0
13.08.2017 18:00:00 17,9 10,5 15 8 S 1020,6 45 60 0,0
13.08.2017 17:00:00 18,4 11,2 15 8 SSE 1020,9 50 60 0,0
13.08.2017 16:00:00 19,1 10,3 13 7 S 1021,0 50 48 0,0
13.08.2017 15:00:00 18,5 10,8 13 7 S 1021,5 50 48 0,0
13.08.2017 14:00:00 18,7 10,3 16 9 S 1021,4 50 18 0,0
13.08.2017 13:00:00 19,1 10,1 9 5 S 1021,6 50 18 0,0
13.08.2017 12:00:00 18,8 10,3 4 2 NNE 1021,9 45 36 0,0
13.08.2017 11:00:00 17,7 12,2 4 2 WSW 1022,2 40 60 0,0
13.08.2017 10:00:00 15,4 15,4 4 2 SW 1022,2 2,3 60 0,0
13.08.2017 09:00:00 11,4 11,4 4 2 N 1022,2 1,9 18 0,0
13.08.2017 08:00:00 9,8 9,8 2 1 ENE 1021,9 0,3 24 0,2
13.08.2017 07:00:00 7,2 7,2 0 0 N 1021,7 0,2 0 0,0
13.08.2017 06:00:00 6,6 6,6 0 0 N 1021,3 0,1 0 0,0
13.08.2017 05:00:00 7,1 7,0 4 2 ENE 1021,3 0,2 0 0,0
13.08.2017 04:00:00 8,8 8,8 2 1 ENE 1021,2 0,2 0 0,0
13.08.2017 03:00:00 8,8 8,6 0 0 N 1021,2 1,8 0 0,0
13.08.2017 02:00:00 10,0 9,8 2 1 N 1021,2 0,3 0 0,0
13.08.2017 01:00:00 9,7 9,0 4 2 NE 1021,2 11 - 0,0
13.08.2017 00:00:00 11,3 10,6 5 3 NNW 1021,3 19 0 0,0
12.08.2017 23:00:00 10,8 9,6 4 2 SE 1021,3 20 0 0,0
12.08.2017 22:00:00 13,0 11,1 5 3 WNW 1021,1 25 0 0,0
12.08.2017 21:00:00 13,8 11,2 11 6 NW 1020,4 27 24 0,0
12.08.2017 20:00:00 16,3 11,4 15 8 WNW 1019,9 35 60 0,0
12.08.2017 19:00:00 17,7 11,7 21 11 WNW 1019,4 45 60 0,0
12.08.2017 18:00:00 17,4 10,8 16 9 WNW 1019,2 45 36 0,0
12.08.2017 17:00:00 17,7 11,1 18 10 WNW 1019,0 40 30 0,0
12.08.2017 16:00:00 18,9 12,1 18 10 WNW 1018,7 50 18 0,0
12.08.2017 15:00:00 18,7 12,5 15 8 WNW 1018,7 50 6 0,0
12.08.2017 14:00:00 17,4 11,6 16 9 WNW 1018,7 50 0 0,0
12.08.2017 13:00:00 17,5 13,0 16 9 WNW 1018,6 50 0 0,0
12.08.2017 12:00:00 16,3 12,0 13 7 NNW 1018,4 45 0 0,0
12.08.2017 11:00:00 15,9 13,0 13 7 WNW 1018,1 45 0 0,0
12.08.2017 10:00:00 15,2 12,6 13 7 WNW 1017,7 40 0 0,0
12.08.2017 09:00:00 16,3 13,4 8 4 WNW 1017,0 40 0 0,0
12.08.2017 08:00:00 15,6 13,8 11 6 WNW 1016,7 30 0 0,0
12.08.2017 07:00:00 14,9 13,7 9 5 WNW 1016,1 28 0 0,0
12.08.2017 06:00:00 14,9 13,5 8 4 W 1015,7 29 0 0,0
12.08.2017 05:00:00 15,8 14,5 15 8 WNW 1015,4 35 0 0,0
12.08.2017 04:00:00 17,0 15,3 8 4 W 1015,5 30 0 0,0
12.08.2017 03:00:00 17,2 15,2 9 5 W 1015,8 50 0 0,0
12.08.2017 02:00:00 17,3 15,3 9 5 W 1016,0 50 0 0,0
12.08.2017 01:00:00 17,4 15,5 13 7 W 1016,1 50 - 0,0
12.08.2017 00:00:00 16,7 15,5 8 4 SSW 1016,7 45 0 0,0
11.08.2017 23:00:00 16,7 15,4 9 5 SSW 1017,1 50 0 0,0
11.08.2017 22:00:00 16,8 15,4 9 5 SSW 1017,3 40 0 0,0
11.08.2017 21:00:00 16,8 15,5 9 5 SSW 1017,6 26 0 0,0
11.08.2017 20:00:00 17,1 15,1 15 8 SSW 1017,6 35 0 0,0
11.08.2017 19:00:00 17,2 15,0 13 7 SSW 1017,8 30 0 0,0
11.08.2017 18:00:00 17,2 14,7 16 9 SW 1018,4 30 0 0,0
11.08.2017 17:00:00 17,5 14,5 21 11 SW 1018,9 30 0 0,0
11.08.2017 16:00:00 17,6 13,9 18 10 SW 1019,3 35 0 0,0
11.08.2017 15:00:00 18,4 14,4 18 10 W 1019,5 40 0 0,0
11.08.2017 14:00:00 17,1 14,8 9 5 WSW 1019,9 50 0 0,0
11.08.2017 13:00:00 16,0 14,1 11 6 WSW 1020,5 17 0 0,4
11.08.2017 12:00:00 16,2 12,5 21 11 W 1020,8 26 0 0,0
11.08.2017 11:00:00 17,2 11,8 16 9 WNW 1020,7 40 0 0,0
11.08.2017 10:00:00 17,1 11,3 18 10 W 1021,0 45 42 0,0
11.08.2017 09:00:00 15,3 12,0 8 4 W 1021,1 40 54 0,0
11.08.2017 08:00:00 12,4 12,3 4 2 S 1021,4 20 24 0,0
11.08.2017 07:00:00 9,4 9,4 2 1 E 1021,9 13 6 0,0
11.08.2017 06:00:00 8,4 8,3 2 1 ENE 1021,9 8 0 0,0
11.08.2017 05:00:00 8,9 8,9 4 2 ENE 1021,6 11 0 0,0
11.08.2017 04:00:00 8,8 8,8 0 0 N 1022,2 11 0 0,0
11.08.2017 03:00:00 7,6 7,6 2 1 ESE 1022,6 10 0 0,0
11.08.2017 02:00:00 7,1 6,6 0 0 N 1023,3 7 0 0,0
11.08.2017 01:00:00 8,5 7,2 2 1 NNW 1023,9 11 - 0,0
11.08.2017 00:00:00 10,2 9,8 4 2 NW 1024,4 17 0 0,0
10.08.2017 23:00:00 11,0 9,9 4 2 NW 1024,6 22 0 0,0
10.08.2017 22:00:00 11,2 9,4 2 1 WSW 1025,0 28 0 0,0
10.08.2017 21:00:00 12,9 9,9 9 5 NW 1024,5 30 30 0,0
10.08.2017 20:00:00 16,1 10,8 8 4 NNW 1024,2 40 48 0,0
10.08.2017 19:00:00 17,3 11,7 16 9 WNW 1023,7 40 48 0,0
10.08.2017 18:00:00 17,3 10,9 16 9 NW 1024,0 45 30 0,0

tt = temperature
td = dewpoint
ff = wind speed
dd = wind direction
ppp = reduced air pressure
vv = visibility
sd = sunshine duration
rr = precipitation

Next stations